Location: Unspecified
(0.0000°N, 0.0000°E)
Time: 22:56:33
(UTC+00:00)

S-56A Canister/Altair - Pass Details

Date: 06 October 2020
Orbit: 633 x 2499 km, 38.9° (Epoch: 28 October)

Event Time Altitude Azimuth Distance (km) Brightness Sun altitude
Rises 17:16:02 0° 333° (NNW) 6,050 12.4 7.9°
Reaches altitude 10° 17:23:07 10° 354° (N) 4,780 11.6 6.2°
Maximum altitude 17:29:25 15° 23° (NNE) 4,061 11.0 4.6°
Drops below altitude 10° 17:34:52 10° 53° (NE) 4,061 10.7 3.2°
Sets 17:39:51 0° 76° (ENE) 4,650 10.8 2.0°
